Weather Roundup
Issued by NWS

Home | Current Version | Previous Version | Graphics & Text | Print | Product List | Glossary Off
Versions: 1 2 3 4 5 6 7 8 9 10 11 12 13 14 15 16 17 18 19 20 21 22 23 24 25 26 27 28 29 30 31 32 33 34 35 36 37 38 39 40 41 42 43 44 45 46 47 48 49 50

644
NZUS93 KARX 240659
HRRWXR

CURRENT HOURLY OBSERVATIONS ACROSS
MUCH OF THE UPPER MISSISSIPPI VALLEY
NATIONAL WEATHER SERVICE LA CROSSE WI
200 AM CDT SUN JUL 24 2016


...SOUTHEAST MINNESOTA...


CITY           SKY/WX    TMP DP  RH WIND       PRES   REMARKS
ROCHESTER      PTCLDY    72  71  97 S8        29.82S
ROCHESTER/MAYO CLOUDY    73  73 100 SE8       29.81F
WINONA         CLOUDY    73  70  88 SE5       29.81F
AUSTIN         PTCLDY    73  70  88 S3        29.82S
ALBERT LEA     FOG       75  73  94 CALM      29.81S VSB 1/2
DODGE CENTER   CLOUDY    73  72  94 S7        29.82S FOG
PRESTON        CLOUDY    71  69  94 S9        29.84F FOG
OWATONNA       CLOUDY    75  72  88 S7        29.79F FOG
FARIBAULT      CLOUDY    75  73  94 S7        29.78F
$$

...ELSEWHERE IN MINNESOTA...


CITY           SKY/WX    TMP DP  RH WIND       PRES   REMARKS
MINNEAPOLIS    CLOUDY    76  72  87 S7        29.76F
INTNL FALLS    CLOUDY    70  65  84 VRB7      29.69F
DULUTH         TSTM      62  61  96 SE6       29.79F FOG
RED WING       CLOUDY    75  72  88 CALM      29.77F
REDWOOD FALLS  PTCLDY    79  76  90 NW10      29.76F
MANKATO        PTCLDY    75  72  88 S8        29.77F
WORTHINGTON    CLEAR     78  75  90 NW16G22   29.86R
FAIRMONT       CLEAR     77  54  44 SW6       29.78S
$$

...SOUTHWEST WISCONSIN...


CITY           SKY/WX    TMP DP  RH WIND       PRES   REMARKS
LA CROSSE      MOCLDY    75  71  87 S8        29.81F
PRAIRIE DU CHI CLOUDY    73  70  92 CALM      29.84F
BOSCOBEL       CLOUDY    75  71  87 S6        29.84F
LONE ROCK      NOT AVBL
PLATTEVILLE    CLEAR     72  72 100 S6        29.88F
FORT MC COY    PTCLDY    72  69  91 SW3       29.85S
MAUSTON-NEW LI PTSUNNY   72  70  95 S7        29.84S
VIROQUA        PTSUNNY   71  71 100 S8        29.86F
WIS DELLS      NOT AVBL
$$

...ELSEWHERE IN WISCONSIN...


CITY           SKY/WX    TMP DP  RH WIND       PRES   REMARKS
MILWAUKEE      CLOUDY    73  68  84 S9        29.90F
MADISON        MOCLDY    72  69  90 S9        29.88S
GREEN BAY      CLOUDY    72  72 100 S8        29.86F
EAU CLAIRE     NOT AVBL
BLACK RVR FLS  CLOUDY    69  69 100 CALM      29.82F
MEDFORD        CLOUDY    67  67 100 CALM      29.86F
WAUSAU         CLOUDY    70  68  93 SE5       29.84F
WIS RAPIDS     CLOUDY    71  68  90 S3        29.86F
MARSHFIELD     CLOUDY    71  68  90 SW3       29.84F
RICE LAKE      CLOUDY    69  67  93 CALM      29.81F
$$

...NORTHEAST IOWA...


CITY           SKY/WX    TMP DP  RH WIND       PRES   REMARKS
WATERLOO       CLEAR     77  74  90 S7        29.82S
DUBUQUE        CLEAR     73  72  96 S10       29.88F
DECORAH        PTCLDY    72  72 100 S3        29.83F
MASON CITY     CLEAR     74  73  97 S6        29.83S
CHARLES CITY   CLOUDY    75  75 100 MISG      29.83F
OELWEIN        CLOUDY    75  75 100 S8        29.85F
$$

...ELSEWHERE IN IOWA...


CITY           SKY/WX    TMP DP  RH WIND       PRES   REMARKS
DES MOINES     CLOUDY    82  76  81 S7        29.83S
IOWA CITY      CLEAR     82  79  90 S10       29.87F HX  92
FORT DODGE     CLEAR     79  75  89 S8        29.83S
MARSHALLTOWN   CLOUDY    80  77  90 S9        29.83S
CEDAR RAPIDS   CLEAR     79  79 100 S8        29.85F
$$

...NORTHERN ILLINOIS...


CITY           SKY/WX    TMP DP  RH WIND       PRES   REMARKS
CHICAGO-OHARE  CLOUDY    72  70  93 S8        29.94F
CHICAGO-MIDWAY LGT RAIN  73  70  90 S7        29.94F
MOLINE         NOT AVBL
ROCKFORD       CLOUDY    72  70  93 S12       29.93S
PEORIA         CLOUDY    81  77  88 S10       29.92F
$$

NOTE: "FAIR" INDICATES FEW OR NO CLOUDS BELOW 12,000 FEET WITH NO
SIGNIFICANT WEATHER AND/OR OBSTRUCTIONS TO VISIBILITY. WIND
SPEEDS ARE IN MILES-PER-HOUR.




USA.gov is the U.S. government's official web portal to all federal, state and local government web resources and services.